Location: Amsterdam
(30.7274°N, 84.4357°W)
Time: 17:22:05
(UTC+00:00)

Injun/Solrad 3 - Pass Details

Date: 23 February 2026
Orbit: 871 x 985 km, 66.8° (Epoch: 11 March)

Event Time Altitude Azimuth Distance (km) Brightness Sun altitude
Rises 00:13:06 0° 346° (NNW) 3,595 11.1 -9.7°
Reaches altitude 10° 00:15:57 10° 357° (N) 2,667 10.3 -10.3°
Maximum altitude 00:21:23 31° 58° (ENE) 1,631 8.7 -11.5°
Enters shadow 00:26:36 11° 117° (ESE) 2,625 9.7 -12.6°
Drops below altitude 10° 00:26:54 10° 118° (ESE) 2,714 - -12.7°
Sets 00:29:48 0° 129° (SE) 3,668 - -13.3°
